TimeCDT,TemperatureF,Dew PointF,Humidity,Sea Level PressureIn,VisibilityMPH,Wind Direction,Wind SpeedMPH,Gust SpeedMPH,PrecipitationIn,Events,Conditions,WindDirDegrees,DateUTC
12:53 AM,60.1,55.9,86,30.06,10.0,South,10.4,-,N/A,,Clear,190,2013-03-16 05:53:00
1:53 AM,59.0,55.9,90,30.05,10.0,SSW,6.9,-,N/A,,Clear,200,2013-03-16 06:53:00
2:53 AM,59.0,55.9,90,30.03,10.0,South,9.2,-,N/A,,Clear,180,2013-03-16 07:53:00
3:53 AM,55.9,55.0,97,30.03,10.0,SSW,4.6,-,N/A,,Scattered Clouds,200,2013-03-16 08:53:00
4:53 AM,55.9,55.0,97,30.02,10.0,South,3.5,-,N/A,,Clear,170,2013-03-16 09:53:00
5:53 AM,51.1,51.1,100,30.01,9.0,SSE,4.6,-,N/A,,Clear,150,2013-03-16 10:53:00
6:53 AM,52.0,52.0,100,30.02,5.0,Calm,Calm,-,N/A,,Clear,0,2013-03-16 11:53:00
7:53 AM,52.0,52.0,100,30.02,6.0,SE,4.6,-,N/A,,Clear,130,2013-03-16 12:53:00
8:53 AM,57.9,57.0,97,30.03,8.0,SE,3.5,-,N/A,,Scattered Clouds,130,2013-03-16 13:53:00
9:53 AM,66.0,57.0,73,30.04,10.0,SW,12.7,19.6,N/A,,Partly Cloudy,220,2013-03-16 14:53:00
10:48 AM,69.8,57.2,64,30.02,10.0,SW,11.5,19.6,N/A,,Mostly Cloudy,220,2013-03-16 15:48:00
10:53 AM,70.0,57.0,63,30.04,10.0,SW,11.5,-,N/A,,Mostly Cloudy,220,2013-03-16 15:53:00
11:13 AM,71.6,55.4,57,30.03,10.0,SW,16.1,23.0,N/A,,Scattered Clouds,220,2013-03-16 16:13:00
11:53 AM,71.1,55.0,57,30.03,10.0,SW,11.5,17.3,N/A,,Mostly Cloudy,230,2013-03-16 16:53:00
12:53 PM,75.0,53.1,46,30.01,10.0,SSW,15.0,21.9,N/A,,Partly Cloudy,200,2013-03-16 17:53:00
1:53 PM,78.1,53.1,42,29.97,10.0,SSW,15.0,21.9,N/A,,Partly Cloudy,200,2013-03-16 18:53:00
2:53 PM,78.1,52.0,40,29.93,10.0,South,13.8,20.7,N/A,,Partly Cloudy,180,2013-03-16 19:53:00
3:53 PM,79.0,52.0,39,29.90,10.0,South,9.2,21.9,N/A,,Clear,170,2013-03-16 20:53:00
4:53 PM,78.1,52.0,40,29.88,10.0,South,12.7,21.9,N/A,,Partly Cloudy,180,2013-03-16 21:53:00
5:53 PM,77.0,52.0,42,29.88,10.0,South,11.5,20.7,N/A,,Clear,180,2013-03-16 22:53:00
6:53 PM,73.0,53.1,49,29.89,10.0,South,10.4,-,N/A,,Clear,170,2013-03-16 23:53:00
7:53 PM,70.0,53.1,55,29.90,10.0,South,12.7,-,N/A,,Clear,180,2013-03-17 00:53:00
8:53 PM,66.9,55.0,66,29.91,10.0,South,10.4,-,N/A,,Clear,180,2013-03-17 01:53:00
9:53 PM,64.9,55.0,70,29.93,10.0,South,12.7,19.6,N/A,,Clear,190,2013-03-17 02:53:00
10:53 PM,64.0,57.0,78,29.93,10.0,South,10.4,-,N/A,,Clear,180,2013-03-17 03:53:00
11:53 PM,62.1,55.9,80,29.93,10.0,South,6.9,-,N/A,,Clear,170,2013-03-17 04:53:00